User: anonymous   Login
Location: Bailleul
(50.3375°N, 2.8513°E)
Time: 16:18:44
(UTC+00:00)
Language:

Cosmos 1867 - Orbit

View from above orbital plane
View from above orbital plane
View from above satellite
View from above satellite

Ground track
Ground track

The orbit data is extracted from the following two-line orbital elements,

1 18187U 87060A   21269.07113848 -.00000067  00000-0  12571-4 0  9992
2 18187  65.0110 177.5904 0020925 271.7588  88.1099 14.31126288787507
Epoch (UTC): 26 September 2021 01:42:26
Eccentricity: 0.0020925
inclination: 65.0110°
perigee height: 773 km
apogee height: 803 km
right ascension of ascending node: 177.5904°
argument of perigee: 271.7588°
revolutions per day: 14.31126288
mean anomaly at epoch: 88.1099°
orbit number at epoch: 78750

The dashed part of the orbit path shows where the satellite is in the earth's shadow,  

DLR